Flag for Poland Weather past 2 weeks in Lidzbark Warmiński, Poland

Now
52 °F

Cool.


Feels Like: 52 °F
Forecast: 46 / 67 °F
Wind: 1 mph from West

Location: Ketrzyn

Current Time: Aug 1, 2015 at 12:11:45 AM

Latest Report: Jul 31, 2015 at 11:00 PM


Visibility: 9 mi

Pressure: 30.05 "Hg

Humidity: 91%

Dew point: 50 °F

Location of Lidzbark WarmińskiLocation

Historic Weather in Lidzbark Warmiński — Graph

°F

Lidzbark Warmiński temperature yesterday

Maximum temperature yesterday: 62 °F (at 12:00 PM)
Minimum temperature yesterday: 54 °F (at 10:00 PM)
Average temperature yesterday: 58 °F

Past Weeks' High & Low Weather Summary

 TemperatureHumidityPressure
High82 °F (Jul 18, 4:00 PM)97% (Jul 20, 3:00 AM)30.07 "Hg (Jul 20, 3:00 AM)
Low48 °F (Jul 18, 1:00 AM)35% (Jul 17, 1:00 PM)29.56 "Hg (Jul 28, 2:00 PM)
Average63 °F73%29.84 "Hg
* Reported Jul 16 10:00 PM — Jul 31 10:00 PM, Lidzbark Warmiński, Weather by CustomWeather, © 2015

Note: Actual official high and low records may vary slightly from our data, if they occured in-between our weather recording intervals... More about our weather records

Advertising

Lidzbark Warmiński weather history for previous 24 hours

 ConditionsComfort  
Time TempWeatherWind HumidityBarometerVisibility
10:00 PM
Fri, Jul 31
54 °FCool.1 mph89%30.04 "Hg11 mi
9:00 PM55 °FCool.3 mph88%30.04 "Hg12 mi
8:00 PM56 °FCool.5 mph84%30.01 "Hg16 mi
7:00 PM57 °FCool.6 mph84%30.00 "Hg19 mi
6:00 PM58 °FCool.6 mph85%29.98 "Hg19 mi
5:00 PM59 °FRain showers. Cloudy.7 mph82%29.96 "Hg16 mi
4:00 PM60 °FCool.6 mph79%29.95 "Hg28 mi
3:00 PM61 °FCool.8 mph72%29.94 "Hg25 mi
2:00 PM60 °FCool.7 mph72%29.94 "Hg19 mi
1:00 PM61 °FCool.6 mph70%29.93 "Hg22 mi
12:00 PM62 °FCool.7 mph71%29.91 "Hg22 mi
11:00 AM61 °FCool.6 mph72%29.90 "Hg22 mi
10:00 AM59 °FCool.6 mph77%29.89 "Hg25 mi
9:00 AM58 °FCool.6 mph77%29.88 "Hg22 mi
8:00 AM57 °FCool.6 mph82%29.88 "Hg16 mi
7:00 AM56 °FCool.5 mph79%29.86 "Hg31 mi
6:00 AM56 °FCool.3 mph77%29.85 "Hg28 mi
4:00 AM56 °FCool.3 mph77%29.83 "Hg28 mi
3:00 AM54 °FCool.2 mph85%29.83 "Hg19 mi
2:00 AM56 °FCool.5 mph75%29.82 "Hg31 mi
1:00 AM56 °FCool.3 mph83%29.82 "Hg25 mi
12:00 AM55 °FRain showers. Overcast.6 mph86%29.82 "Hg14 mi
Weather by CustomWeather, © 2015

See weather overviewHow to use our weather pages